User: anonymous   Login
Location: Unspecified
(0.0000°N, 0.0000°E)
Time: 09:31:06
(UTC+02:00)
Language:

SJ-6B - Orbit

View from above orbital plane
View from above orbital plane
View from above satellite
View from above satellite

Ground track
Ground track

The orbit data is extracted from the following two-line orbital elements,

1 28415U 04035C   17112.94616940 +.00001165 +00000-0 +81914-4 0  9993
2 28415 097.7516 141.8074 0051098 309.8603 049.8134 15.06144684690265
Epoch (UTC): 22 April 2017 22:42:29
Eccentricity: 0.0051098
inclination: 97.7516°
perigee height: 512 km
apogee height: 583 km
right ascension of ascending node: 141.8074°
argument of perigee: 309.8603°
revolutions per day: 15.06144684
mean anomaly at epoch: 49.8134°
orbit number at epoch: 69026

The dashed part of the orbit path shows where the satellite is in the earth's shadow,  

DLR